Weather Roundup
Issued by NWS

Home | Current Version | Previous Version | Graphics & Text | Print | Product List | Glossary Off
Versions: 1 2 3 4 5 6 7 8 9 10 11 12 13 14 15 16 17 18 19 20 21 22 23 24 25 26 27 28 29 30 31 32 33 34 35 36 37 38 39 40 41 42 43 44 45 46 47 48 49 50

000
NZUS93 KARX 200859
HRRWXR

CURRENT HOURLY OBSERVATIONS ACROSS
MUCH OF THE UPPER MISSISSIPPI VALLEY
NATIONAL WEATHER SERVICE LA CROSSE WI
400 AM CDT SAT SEP 20 2014


...SOUTHEAST MINNESOTA...


CITY           SKY/WX    TMP DP  RH WIND       PRES   REMARKS
ROCHESTER      CLOUDY    65  63  93 S14       29.78R
ROCHESTER/MAYO FAIR      66  63  90 S16G24    29.76R
WINONA         CLOUDY    70  63  78 SW9       29.74R
AUSTIN         CLOUDY    64  63  94 SW14      29.80R
ALBERT LEA     CLOUDY    64  64 100 SW9       29.79R
DODGE CENTER   CLOUDY    66  63  88 SW17G25   29.76R
PRESTON        CLOUDY    62  63 100 SW10      29.79R
OWATONNA       CLOUDY    66  63  88 S10       29.77R
FARIBAULT      CLOUDY    70  63  78 S9        29.75R
$$

...ELSEWHERE IN MINNESOTA...


CITY           SKY/WX    TMP DP  RH WIND       PRES   REMARKS
MINNEAPOLIS    CLOUDY    69  64  84 SW14      29.68F
INTNL FALLS    CLOUDY    59  58  96 W10       29.61R
DULUTH         FOG       62  60  93 W12       29.59S VSB 3/4
RED WING       CLOUDY    70  63  78 W8        29.70R
REDWOOD FALLS  CLEAR     65  58  78 W8        29.75R
MANKATO        MOCLDY    66  61  82 S9        29.74S
WORTHINGTON    MOCLDY    66  64  94 W6        29.81R
FAIRMONT       CLOUDY    64  55  72 S8        29.77S
$$

...SOUTHWEST WISCONSIN...


CITY           SKY/WX    TMP DP  RH WIND       PRES   REMARKS
LA CROSSE      CLOUDY    69  62  78 CALM      29.74R
PRAIRIE DU CHI RAIN      64  62  95 SE5       29.84R
BOSCOBEL       CLOUDY    67  63  87 S7        29.84F
LONE ROCK      LGT RAIN  70  62  76 VRB5      29.85F
PLATTEVILLE    CLOUDY    64  62  94 SW7       29.90R
FORT MC COY    LGT RAIN  64  63  94 S15G24    29.72F
CAMP DOUGLAS   CLOUDY    66  66 100 S14G20    29.74F
VIROQUA        CLOUDY    64  64 100 SW8       29.82R
WIS DELLS      CLOUDY    63  60  90 SW9       29.84S
$$

...ELSEWHERE IN WISCONSIN...


CITY           SKY/WX    TMP DP  RH WIND       PRES   REMARKS
MILWAUKEE      CLOUDY    64  53  67 SW18G26   29.84R
MADISON        LGT RAIN  66  60  81 SW7       29.87R
GREEN BAY      TSTM      61  60  97 S13       29.75F FOG
EAU CLAIRE     NOT AVBL
BLACK RVR FLS  PTSUNNY   66  66 100 W6        29.76R FOG
MEDFORD        CLOUDY    64  61  92 S10G17    29.71R
WAUSAU         CLOUDY    64  60  87 SW14      29.71S
WIS RAPIDS     LGT RAIN  64  62  93 S10G23    29.71F
MARSHFIELD     LGT RAIN  65  63  93 W9        29.73S FOG
RICE LAKE      CLOUDY    67  65  92 SW9       29.67F FOG
$$

...NORTHEAST IOWA...


CITY           SKY/WX    TMP DP  RH WIND       PRES   REMARKS
WATERLOO       LGT RAIN  65  63  93 SE6       29.85F
DUBUQUE        CLOUDY    63  60  90 SW8       29.91R
DECORAH        LGT RAIN  63  63 100 S9        29.80F
MASON CITY     CLOUDY    65  61  87 SW10      29.81F
CHARLES CITY   CLOUDY    64  63  94 S9G16     29.81R
OELWEIN        LGT RAIN  66  64  94 SW8       29.89R
$$

...ELSEWHERE IN IOWA...


CITY           SKY/WX    TMP DP  RH WIND       PRES   REMARKS
DES MOINES     CLOUDY    73  67  81 CALM      29.90R
IOWA CITY      CLOUDY    65  62  90 NW10      29.93R
FORT DODGE     CLOUDY    64  63  94 S6        29.84R
MARSHALLTOWN   LGT RAIN  67  65  93 S8        29.87F
CEDAR RAPIDS   CLOUDY    65  63  93 SW3       29.90R
$$

...NORTHERN ILLINOIS...


CITY           SKY/WX    TMP DP  RH WIND       PRES   REMARKS
CHICAGO-OHARE  CLOUDY    64  52  64 SW13G22   29.90F
DUPAGE         MOCLDY    59  52  77 S9        29.92F
CHICAGO-MIDWAY CLOUDY    63  53  70 SW12      29.92F
MOLINE         CLOUDY    63  57  81 S8        29.89F
ROCKFORD       CLOUDY    60  54  80 S9        29.92R
STERLING       CLOUDY    63  55  77 CALM      29.90S
PEORIA         MOCLDY    60  55  83 SW6       29.96S
$$

NOTE: "FAIR" INDICATES FEW OR NO CLOUDS BELOW 12,000 FEET WITH NO
SIGNIFICANT WEATHER AND/OR OBSTRUCTIONS TO VISIBILITY. WIND
SPEEDS ARE IN MILES-PER-HOUR.



USA.gov is the U.S. government's official web portal to all federal, state and local government web resources and services.